GW1943 Weather Reports


time (UTC)temp
F
wind
direction
speed
knots
gust
knots
rain 1hr
in
rain 24hr
in
rain mn
in
humidity
%
barometer
mb
20260902175453 66 197 0.0 0.0 0.00 0.01 0.01 71 1006.7
20260902174949 66 211 0.0 0.9 0.00 0.01 0.01 71 1006.9
20260902174446 66 209 0.0 0.0 0.00 0.01 0.01 74 1006.8
20260902173941 65 210 0.0 0.0 0.00 0.01 0.01 72 1007.0
20260902173440 66 199 0.0 0.0 0.00 0.01 0.01 72 1006.9
20260902172935 66 203 0.0 0.0 0.00 0.01 0.01 72 1006.9
20260902172434 66 202 0.0 0.9 0.00 0.01 0.01 71 1007.0
20260902171930 65 210 0.0 0.0 0.00 0.01 0.01 71 1007.0
20260902171425 65 216 0.0 0.9 0.00 0.01 0.01 72 1007.1
20260902170921 65 216 0.0 0.0 0.00 0.01 0.01 74 1007.2
20260902170416 64 217 0.0 0.9 0.00 0.01 0.01 74 1007.2
20260902165912 65 216 0.0 0.9 0.00 0.01 0.01 75 1007.1
20260902165411 65 217 0.0 0.9 0.00 0.01 0.01 73 1007.6
20260902164906 65 224 0.0 0.0 0.00 0.01 0.01 72 1007.5
20260902164401 66 221 0.0 0.0 0.00 0.01 0.01 72 1007.3
20260902163900 65 221 0.0 0.0 0.00 0.01 0.01 73 1007.4
20260902163355 65 217 0.0 0.0 0.00 0.01 0.01 73 1007.5
20260902162853 65 224 0.9 0.9 0.00 0.01 0.01 73 1007.6
20260902162349 65 215 0.0 1.7 0.00 0.01 0.01 73 1007.6
20260902161849 65 200 0.0 0.9 0.00 0.01 0.01 73 1007.6
20260902161344 65 213 0.9 0.9 0.00 0.01 0.01 74 1007.5
20260902160840 65 204 0.0 0.0 0.00 0.01 0.01 73 1007.5
20260902160335 64 205 0.0 0.0 0.00 0.01 0.01 76 1007.6
20260902155833 64 270 0.0 0.0 0.00 0.01 0.01 76 1007.6
20260902155332 63 208 0.0 0.9 0.00 0.01 0.01 77 1007.7
20260902154827 63 219 0.0 0.0 0.00 0.01 0.01 79 1007.7
20260902154323 63 214 0.0 0.0 0.00 0.01 0.01 80 1007.8
20260902153822 63 213 0.0 0.0 0.00 0.01 0.01 83 1008.0
20260902153321 62 206 0.0 0.0 0.00 0.01 0.01 82 1008.0
20260902152817 62 180 0.0 0.0 0.00 0.01 0.01 83 1008.1
20260902152313 61 197 0.0 0.0 0.00 0.01 0.01 85 1008.0
20260902151808 61 199 0.0 0.0 0.00 0.01 0.01 85 1008.2
20260902151303 60 200 0.0 0.0 0.00 0.01 0.01 86 1008.2
20260902150758 60 200 0.0 0.9 0.00 0.01 0.01 86 1008.3
20260902150254 59 201 0.0 0.0 0.00 0.01 0.01 88 1008.4
20260902145753 59 201 0.0 0.0 0.00 0.01 0.01 88 1008.3
20260902145248 59 202 0.0 0.0 0.00 0.01 0.01 89 1008.3
20260902144744 59 197 0.0 0.0 0.00 0.01 0.01 89 1008.4
20260902144240 59 198 0.0 0.0 0.00 0.01 0.01 89 1008.8
20260902143734 59 201 0.0 0.0 0.00 0.01 0.01 89 1008.6
20260902143230 59 195 0.0 0.0 0.00 0.01 0.01 89 1008.7
20260902142720 59 198 0.0 0.0 0.00 0.01 0.01 89 1008.6
20260902142215 59 202 0.0 0.0 0.00 0.01 0.01 89 1008.9
20260902141710 58 202 0.0 0.0 0.00 0.01 0.01 90 1008.9
20260902141205 58 205 0.0 0.0 0.00 0.01 0.01 91 1008.9
20260902140700 58 207 0.0 0.9 0.00 0.01 0.01 92 1008.6
20260902140155 58 198 0.0 0.0 0.00 0.01 0.01 92 1008.6
20260902135654 58 198 0.0 0.0 0.00 0.01 0.01 93 1008.7
20260902135149 57 198 0.0 0.0 0.00 0.01 0.01 93 1008.7
20260902134645 58 198 0.0 0.0 0.00 0.01 0.01 93 1009.0
20260902134144 58 199 0.0 0.0 0.00 0.01 0.01 92 1008.8
20260902133639 58 199 0.0 0.0 0.00 0.01 0.01 92 1008.6
20260902133133 58 199 0.0 0.0 0.00 0.01 0.01 92 1008.6
20260902132629 58 200 0.0 0.0 0.00 0.01 0.01 91 1008.7
20260902132124 58 200 0.0 0.0 0.00 0.01 0.01 91 1008.8
20260902131621 58 198 0.0 0.0 0.00 0.01 0.01 91 1008.8
20260902131115 59 170 0.0 0.0 0.00 0.01 0.01 91 1008.9
20260902130611 59 197 0.0 0.0 0.00 0.01 0.01 91 1008.6
20260902130106 59 187 0.0 0.0 0.00 0.01 0.01 91 1009.1
20260902125602 59 199 0.0 0.9 0.00 0.01 0.01 91 1009.1
20260902125057 59 201 0.0 0.0 0.00 0.01 0.01 91 1009.0
20260902124554 59 205 0.0 0.0 0.00 0.01 0.01 91 1009.2
20260902124054 59 200 0.0 0.0 0.00 0.01 0.01 91 1009.2
20260902123549 59 204 0.0 0.0 0.00 0.01 0.01 91 1009.3
20260902123044 59 170 0.0 0.0 0.00 0.01 0.01 91 1009.2
20260902122544 59 210 0.0 0.0 0.00 0.01 0.01 91 1009.3
20260902122040 59 209 0.0 0.0 0.00 0.01 0.01 91 1009.4
20260902121539 59 197 0.0 0.0 0.00 0.01 0.01 91 1009.2
20260902121034 59 210 0.0 0.0 0.00 0.01 0.01 91 1009.2
20260902120531 59 200 0.0 0.0 0.00 0.01 0.01 92 1009.3
20260902120027 59 200 0.0 0.0 0.00 0.01 0.01 92 1009.1
20260902115521 59 199 0.0 0.9 0.00 0.01 0.01 93 1009.3
20260902115018 59 206 0.0 0.0 0.00 0.01 0.01 93 1009.4
20260902114513 58 205 0.0 0.9 0.00 0.01 0.01 93 1009.5
20260902114013 58 205 0.0 0.0 0.00 0.01 0.01 93 1009.3
20260902113509 58 202 0.0 0.0 0.00 0.01 0.01 93 1009.4
20260902113004 59 205 0.0 0.0 0.00 0.01 0.01 94 1009.5
20260902112459 58 203 0.0 0.0 0.00 0.01 0.01 94 1009.6
20260902111955 59 200 0.0 0.0 0.00 0.01 0.01 95 1009.5
20260902111452 58 197 0.0 0.9 0.00 0.01 0.01 95 1009.8
20260902110947 58 204 0.0 0.0 0.00 0.01 0.01 96 1009.5
20260902110443 58 198 0.0 0.0 0.00 0.01 0.01 96 1009.8
20260902105943 58 200 0.0 0.0 0.00 0.01 0.01 96 1009.8
20260902105433 58 201 0.0 0.0 0.00 0.01 0.01 96 1009.8
20260902104927 58 201 0.0 0.0 0.00 0.01 0.01 96 1009.9
20260902104423 58 203 0.0 0.0 0.00 0.01 0.01 96 1009.9
20260902103922 58 202 0.0 0.0 0.00 0.01 0.01 96 1009.9
20260902103418 58 203 0.0 0.0 0.00 0.01 0.01 96 1009.8
20260902102913 58 210 0.0 0.9 0.00 0.01 0.01 97 1010.0
20260902102411 58 205 0.0 0.9 0.00 0.01 0.01 97 1009.9
20260902101907 58 203 0.0 0.0 0.00 0.01 0.01 97 1010.0
20260902101401 58 199 0.0 0.0 0.00 0.01 0.01 97 1010.1
20260902100900 58 206 0.0 0.9 0.00 0.01 0.01 97 1009.9
20260902100354 58 208 0.0 0.9 0.00 0.01 0.01 97 1010.2
20260902095849 58 216 0.0 0.0 0.00 0.01 0.01 97 1010.3
20260902095349 58 201 0.0 0.0 0.00 0.01 0.01 97 1010.2
20260902094843 59 200 0.0 0.0 0.00 0.01 0.01 97 1009.9
20260902094340 59 201 0.0 0.0 0.00 0.01 0.01 97 1010.0
20260902093838 59 197 0.0 0.0 0.00 0.01 0.01 97 1009.9
20260902093334 59 201 0.0 0.0 0.00 0.01 0.01 97 1010.2
20260902092832 59 201 0.0 0.0 0.00 0.01 0.01 96 1010.3
20260902092329 59 203 0.0 0.0 0.00 0.01 0.01 96 1010.2
20260902091823 59 204 0.0 0.0 0.00 0.01 0.01 96 1010.2
20260902091319 59 202 0.0 0.0 0.00 0.01 0.01 95 1010.2
20260902090815 60 207 0.0 0.0 0.00 0.01 0.01 95 1010.5
20260902090314 60 207 0.0 0.0 0.07 0.01 0.01 95 1010.5
20260902085813 60 205 0.0 0.0 0.07 0.01 0.01 94 1010.5
20260902085309 60 201 0.0 0.0 0.00 0.00 0.00 94 1010.6
20260902084804 60 202 0.0 0.9 0.00 0.00 0.00 94 1010.9
20260902084301 60 201 0.0 0.0 0.00 0.00 0.00 94 1010.6
20260902083756 60 207 0.0 0.0 0.00 0.00 0.00 94 1010.7
20260902083250 60 201 0.0 0.0 0.00 0.00 0.00 94 1010.9
20260902082745 60 199 0.0 0.0 0.00 0.00 0.00 94 1010.8
20260902082242 60 164 0.0 0.0 0.00 0.00 0.00 94 1010.8
20260902081738 60 172 0.0 0.0 0.00 0.00 0.00 95 1010.6
20260902081233 59 171 0.0 0.0 0.00 0.00 0.00 95 1010.6
20260902080728 59 203 0.0 0.9 0.00 0.00 0.00 95 1010.7
20260902080225 59 198 0.0 1.7 0.00 0.00 0.00 95 1011.1
20260902075724 59 200 0.0 0.0 0.00 0.00 0.00 95 1010.6
20260902075220 59 201 0.0 1.7 0.00 0.00 0.00 95 1010.6
20260902074720 59 200 0.0 0.9 0.00 0.00 0.00 95 1010.7
20260902074216 59 194 0.0 0.0 0.00 0.00 0.00 95 1010.8
20260902073711 60 206 0.0 0.0 0.00 0.00 0.00 95 1010.9
20260902073207 60 204 0.0 0.0 0.00 0.00 0.00 95 1010.8
20260902072703 60 204 0.0 0.0 0.00 0.00 0.00 95 1010.9
20260902072159 60 199 0.0 0.0 0.00 0.00 0.00 95 1011.1
20260902071654 60 209 0.0 0.0 0.00 0.00 0.00 95 1011.0
20260902071149 60 205 0.0 0.0 0.00 0.00 0.00 94 1010.8
20260902070646 60 204 0.0 0.0 0.00 0.00 0.00 94 1010.9
20260902070145 60 201 0.0 0.0 0.00 0.00 0.00 94 1011.3
20260902065644 60 169 0.0 0.0 0.00 0.00 0.00 94 1011.1
20260902065140 60 204 0.0 0.0 0.00 0.00 0.00 94 1011.2
20260902064635 60 144 0.0 0.0 0.00 0.00 0.00 94 1011.1
20260902064131 60 202 0.0 0.0 0.00 0.00 0.00 94 1011.1
20260902063626 60 201 0.0 0.9 0.00 0.00 0.00 94 1011.1
20260902063121 60 205 0.0 0.0 0.00 0.00 0.00 94 1011.1
20260902062619 60 200 0.0 0.0 0.00 0.00 0.00 94 1011.3
20260902062115 60 200 0.0 0.0 0.00 0.00 0.00 94 1011.3
20260902061614 60 204 0.0 0.9 0.00 0.00 0.00 93 1011.3
20260902061110 61 199 0.0 0.0 0.00 0.00 0.00 93 1011.4
20260902060607 61 201 0.0 0.0 0.00 0.00 0.00 92 1011.1
20260902055558 60 211 0.0 0.0 0.00 0.00 0.00 91 1011.2
20260902055054 60 210 0.0 0.9 0.00 0.00 0.00 91 1011.1
20260902054548 60 212 0.0 2.6 0.00 0.00 0.00 92 1011.5
20260902054044 60 213 0.9 1.7 0.00 0.00 0.00 94 1011.6
20260902053539 60 208 0.0 0.9 0.00 0.00 0.00 94 1011.5
20260902053039 60 202 0.0 0.9 0.00 0.00 0.00 94 1011.5
20260902052533 61 201 0.0 0.0 0.00 0.00 0.00 93 1011.5
20260902052030 60 200 0.0 0.0 0.00 0.00 0.00 93 1011.7
20260902051529 60 203 0.0 0.0 0.00 0.00 0.00 93 1011.4
20260902051028 60 205 0.0 0.9 0.00 0.00 0.00 93 1011.4
20260902050522 60 203 0.0 1.7 0.00 0.00 0.00 93 1011.4
20260902050018 60 202 0.0 0.0 0.00 0.00 0.00 93 1011.5
20260902045513 60 202 0.0 0.9 0.00 0.00 0.00 94 1011.4
20260902045010 60 195 0.0 0.0 0.00 0.00 0.00 93 1011.3
20260902044504 60 205 0.0 0.9 0.00 0.00 0.00 93 1011.2
20260902044000 60 203 0.0 0.0 0.00 0.00 0.00 93 1011.2
20260902043454 60 203 0.0 0.0 0.00 0.00 0.00 93 1011.5
20260902042950 60 199 0.9 0.9 0.00 0.00 0.00 93 1011.5
20260902042449 60 204 0.0 0.0 0.00 0.00 0.00 93 1011.3
20260902041944 60 202 0.0 0.0 0.00 0.00 0.00 94 1011.4
20260902041439 60 205 0.0 0.0 0.00 0.00 0.00 94 1011.4
20260902040939 60 198 0.0 0.9 0.00 0.00 0.00 94 1011.6
20260902040433 60 203 0.0 0.9 0.00 0.00 0.00 94 1011.4
20260902035932 60 200 0.0 0.0 0.00 0.00 0.00 94 1011.3
20260902035428 60 201 0.0 0.0 0.00 0.00 0.00 94 1011.4
20260902034927 60 206 0.0 0.0 0.00 0.00 0.00 94 1011.4
20260902034422 60 203 0.0 0.0 0.00 0.00 0.00 94 1011.5
20260902033921 60 172 0.0 0.9 0.00 0.00 0.00 94 1011.4
20260902033414 60 205 0.0 0.9 0.00 0.00 0.00 93 1011.6
20260902032914 61 201 0.0 0.0 0.00 0.00 0.00 92 1011.4
20260902032408 61 208 0.0 1.7 0.00 0.00 0.00 91 1011.3
20260902031903 61 208 1.7 1.7 0.00 0.00 0.00 89 1011.4
20260902031359 62 211 0.0 1.7 0.00 0.00 0.00 88 1011.3
20260902030855 62 209 0.0 1.7 0.00 0.00 0.00 87 1011.5
20260902030349 63 257 0.9 5.2 0.00 0.00 0.00 83 1011.3
20260902025848 64 208 0.0 2.6 0.00 0.00 0.00 80 1011.3
20260902025344 64 256 1.7 2.6 0.00 0.00 0.00 80 1011.1
20260902024838 64 213 0.0 1.7 0.00 0.00 0.00 80 1011.0
20260902024334 65 208 0.9 2.6 0.00 0.00 0.00 79 1011.0
20260902023829 65 262 2.6 2.6 0.00 0.00 0.00 78 1010.9
20260902023325 65 214 0.9 1.7 0.00 0.00 0.00 78 1011.0
20260902022823 65 211 0.9 2.6 0.00 0.00 0.00 78 1011.0
20260902022319 65 210 2.6 4.3 0.00 0.00 0.00 78 1010.9
20260902021815 65 210 0.0 1.7 0.00 0.00 0.00 80 1011.1
20260902021309 64 212 0.0 0.9 0.00 0.00 0.00 80 1011.0
20260902020805 64 208 0.9 0.9 0.00 0.00 0.00 80 1010.9
20260902020301 64 213 0.0 1.7 0.00 0.00 0.00 80 1010.9
20260902015756 64 212 0.0 0.9 0.00 0.00 0.00 80 1010.8
20260902015252 64 207 0.0 0.0 0.00 0.00 0.00 80 1011.0
20260902014748 65 212 0.0 1.7 0.00 0.00 0.00 79 1011.0
20260902014244 65 213 0.0 0.9 0.00 0.00 0.00 79 1010.9
20260902013743 65 222 0.9 1.7 0.00 0.00 0.00 79 1010.9
20260902013238 65 230 0.9 1.7 0.00 0.00 0.00 79 1011.0
20260902012733 65 206 0.9 2.6 0.00 0.00 0.00 79 1010.9
20260902012229 65 201 4.3 8.7 0.00 0.00 0.00 78 1011.0
20260902011724 65 238 2.6 5.2 0.00 0.00 0.00 78 1011.0
20260902011223 65 260 1.7 4.3 0.00 0.00 0.00 78 1011.2
20260902010718 66 286 3.5 5.2 0.00 0.00 0.00 77 1011.0
20260902010214 66 233 0.9 4.3 0.00 0.00 0.00 75 1011.0
20260902005712 66 214 0.9 2.6 0.00 0.00 0.00 75 1011.2
20260902005208 66 213 1.7 2.6 0.00 0.00 0.00 75 1011.0
20260902004708 66 230 1.7 2.6 0.00 0.00 0.00 75 1011.1
20260902004203 66 225 0.0 0.9 0.00 0.00 0.00 77 1011.1
20260902003658 65 211 0.0 0.0 0.00 0.00 0.00 79 1011.3
20260902003153 65 222 1.7 2.6 0.00 0.00 0.00 78 1011.0
20260902002648 65 236 2.6 4.3 0.00 0.00 0.00 78 1011.0
20260902002143 66 214 2.6 4.3 0.00 0.00 0.00 78 1011.2
20260902001638 66 211 1.7 2.6 0.00 0.00 0.00 77 1011.0
20260902001132 66 215 1.7 5.2 0.00 0.00 0.00 77 1011.1
20260902000627 66 210 0.9 2.6 0.00 0.00 0.00 77 1011.2
20260902000122 66 214 0.9 1.7 0.00 0.00 0.00 76 1011.0
20260901235622 66 213 1.7 4.3 0.00 0.00 0.00 75 1011.3
20260901235118 66 209 0.0 4.3 0.00 0.00 0.00 76 1011.0
20260901234616 66 211 1.7 7.0 0.00 0.00 0.00 74 1010.8
20260901234112 66 215 0.0 0.9 0.00 0.00 0.00 76 1011.0
20260901233607 66 217 0.9 1.7 0.00 0.00 0.00 76 1010.9
20260901233103 66 245 0.9 0.9 0.00 0.00 0.00 76 1010.9
20260901232558 66 212 0.0 1.7 0.00 0.00 0.00 76 1010.9
20260901232057 66 227 0.9 0.9 0.00 0.00 0.00 77 1011.0
20260901231554 66 214 0.0 0.9 0.00 0.00 0.00 77 1011.0
20260901231050 66 210 0.9 0.9 0.00 0.00 0.00 77 1010.9
20260901230545 66 235 1.7 2.6 0.00 0.00 0.00 77 1010.9
20260901230040 66 211 0.9 1.7 0.00 0.00 0.00 76 1011.2
20260901225535 67 205 0.9 1.7 0.00 0.00 0.00 75 1011.0
20260901225035 67 214 0.0 0.9 0.00 0.00 0.00 77 1011.0
20260901224531 66 211 0.0 1.7 0.00 0.00 0.00 77 1011.0
20260901224027 66 211 1.7 5.2 0.00 0.00 0.00 77 1011.0
20260901223522 65 248 0.9 1.7 0.00 0.00 0.00 79 1010.9
20260901223018 65 218 0.0 2.6 0.00 0.00 0.00 80 1010.9
20260901222514 65 219 0.9 2.6 0.00 0.00 0.00 79 1011.2
20260901222009 65 206 0.9 2.6 0.00 0.00 0.00 79 1011.1
20260901221505 66 240 0.9 2.6 0.00 0.00 0.00 79 1010.9
20260901221000 65 243 3.5 5.2 0.00 0.00 0.00 78 1011.2
20260901220500 66 224 1.7 5.2 0.00 0.00 0.00 78 1011.0
20260901215958 66 230 3.5 4.3 0.00 0.00 0.00 77 1011.1
20260901215457 66 212 0.9 4.3 0.00 0.00 0.00 78 1011.0
20260901214956 66 231 2.6 4.3 0.00 0.00 0.00 79 1011.3
20260901214455 66 199 1.7 6.1 0.00 0.00 0.00 78 1011.0
20260901213949 66 242 2.6 7.0 0.00 0.00 0.00 77 1011.0
20260901213444 66 213 2.6 5.2 0.00 0.00 0.00 77 1011.0
20260901212943 66 210 0.0 1.7 0.00 0.00 0.00 76 1011.0
20260901212439 66 219 0.9 0.9 0.00 0.00 0.00 76 1011.2
20260901211936 66 214 0.9 0.9 0.00 0.00 0.00 76 1011.0
20260901211431 66 208 0.0 0.0 0.00 0.00 0.00 78 1011.3
20260901210927 66 215 0.0 0.9 0.00 0.00 0.00 78 1011.3
20260901210422 66 214 0.0 1.7 0.00 0.00 0.00 78 1011.3
20260901205919 66 214 0.0 0.0 0.00 0.00 0.00 77 1011.0
20260901205413 66 212 0.9 1.7 0.00 0.00 0.00 77 1011.6
20260901204908 66 213 0.0 0.9 0.00 0.00 0.00 78 1011.5
20260901204404 66 212 0.0 0.0 0.00 0.00 0.00 78 1011.3
20260901203903 66 207 0.9 2.6 0.00 0.00 0.00 78 1011.2
20260901203358 66 215 0.0 0.9 0.00 0.00 0.00 78 1011.5
20260901202853 66 203 0.0 0.0 0.00 0.00 0.00 77 1011.5
20260901202348 67 211 0.0 1.7 0.00 0.00 0.00 77 1011.4
20260901201844 67 211 0.0 0.0 0.00 0.00 0.00 76 1011.3
20260901201344 67 189 0.0 0.0 0.00 0.00 0.00 76 1011.4
20260901200838 67 218 0.0 0.9 0.00 0.00 0.00 75 1011.5
20260901200333 68 226 0.9 2.6 0.00 0.00 0.00 74 1011.3
20260901195832 68 211 0.0 0.9 0.00 0.00 0.00 74 1011.5
20260901195330 69 198 0.0 0.9 0.00 0.00 0.00 72 1011.4
20260901194821 69 221 0.9 1.7 0.00 0.00 0.00 72 1011.4
20260901194315 68 232 1.7 1.7 0.00 0.00 0.00 73 1011.5
20260901193812 68 220 0.9 1.7 0.00 0.00 0.00 75 1011.4
20260901193310 68 211 0.0 0.0 0.00 0.00 0.00 75 1011.6
20260901192805 67 220 0.0 0.9 0.00 0.00 0.00 75 1011.7
20260901192301 67 197 1.7 1.7 0.00 0.00 0.00 75 1011.5
20260901191756 67 209 0.0 1.7 0.00 0.00 0.00 76 1011.4
20260901191252 67 202 2.6 4.3 0.00 0.00 0.00 74 1011.6
20260901190748 67 223 0.9 2.6 0.00 0.00 0.00 76 1011.5
20260901190248 67 228 1.7 2.6 0.00 0.00 0.00 76 1011.5
20260901185746 66 217 0.9 4.3 0.00 0.00 0.00 77 1011.8
20260901185245 66 216 0.9 1.7 0.00 0.00 0.00 77 1011.8
20260901184741 66 203 0.0 2.6 0.00 0.00 0.00 77 1011.6
20260901184236 66 216 1.7 4.3 0.00 0.00 0.00 77 1011.6
20260901183732 66 243 1.7 1.7 0.00 0.00 0.00 78 1011.7
20260901183231 66 237 0.9 2.6 0.00 0.00 0.00 77 1011.7
20260901182728 66 216 0.9 1.7 0.00 0.00 0.00 78 1011.6
20260901182226 65 211 0.0 1.7 0.00 0.00 0.00 79 1011.6
20260901181722 65 210 1.7 1.7 0.00 0.00 0.00 78 1011.7
20260901181222 65 201 0.9 1.7 0.00 0.00 0.00 79 1011.7
20260901180721 64 209 0.9 4.3 0.00 0.00 0.00 79 1011.6
20260901180220 64 210 0.0 2.6 0.00 0.00 0.00 81 1011.5
20260901175720 64 225 0.9 1.7 0.00 0.00 0.00 81 1011.5